Regional Weather Roundup
Issued by NWS

Home | Current Version | Previous Version | Text Only | Print | Product List | Glossary Off
Versions: 1 2 3 4 5 6 7 8 9 10 11 12 13 14 15 16 17 18 19 20 21 22 23 24 25 26 27 28 29 30 31 32 33 34 35 36 37 38 39 40 41 42 43 44 45 46 47 48 49 50

221
ASUS45 KCYS 201010
RWRWY

WYOMING REGIONAL WEATHER ROUNDUP
NATIONAL WEATHER SERVICE CHEYENNE WY
400 AM MDT SUN AUG 20 2017

NOTE:  "FAIR" INDICATES FEW OR NO CLOUDS BELOW 12,000 FEET
WITH NO SIGNIFICANT WEATHER AND/OR OBSTRUCTIONS TO VISIBILITY.

WYZ001-201100-
YELLOWSTONE NATIONAL PARK

CITY           SKY/WX    TMP DP  RH WIND       PRES   REMARKS
LK YELLOWSTONE   N/A     37  33  85 NW3       30.24R
W YELLOWSTONE  NOT AVBL

$$
WYZ002>013-054>058-071-098>099-201100-
NORTHERN WYOMING

CITY           SKY/WX    TMP DP  RH WIND       PRES   REMARKS
JACKSON        FAIR      44  31  60 NE6       30.16S
CODY           FAIR      57  38  48 N8        30.09S
GREYBULL       FAIR      61  38  42 NW3       30.00R
WORLAND        FAIR      53  38  56 CALM      30.00R
SHERIDAN       FAIR      50  41  71 CALM      30.05R
BUFFALO        FAIR      60  36  40 CALM      30.09S
GILLETTE       FAIR      54  41  61 CALM      30.04R
HULETT         FAIR      63  45  51 E12       30.04F
NEWCASTLE      FAIR      57  34  41 W10       30.04R

$$
WYZ014>020-022>026-101>103-201100-
CENTRAL WYOMING

CITY           SKY/WX    TMP DP  RH WIND       PRES   REMARKS
BIG PINEY      FAIR      42  29  59 CALM      30.23R
PINEDALE       FAIR      37  32  81 W5        30.24R WCI  34
DUBOIS         FAIR      46  25  42 NW9       30.19F
LANDER           N/A    N/A N/A N/A MISG      30.09R
RIVERTON       FAIR      60  25  26 N5        30.07S
CASPER         FAIR      49  36  61 NW6       30.10R
DOUGLAS        FAIR      52  39  61 NW6       30.07R

$$
WYZ021-027>030-104>119-201100-
SOUTHERN WYOMING

CITY           SKY/WX    TMP DP  RH WIND       PRES   REMARKS
EVANSTON       FAIR      61  37  41 S5        30.22S
FORT BRIDGER   FAIR      59  34  39 W9        30.24S
ROCK SPRINGS   FAIR      60  33  36 CALM      30.19R
RAWLINS        FAIR      52  30  43 CALM      30.20R
SARATOGA       FAIR      50  32  50 SE13      30.22F
LARAMIE        FAIR      47  30  51 SE9       30.22R
CHEYENNE       FAIR      58  34  40 W8        30.11F
TORRINGTON     FAIR      54  46  74 NW6       29.97R
PINE BLUFFS    FAIR      52  37  58 SW7       30.05S

$$




USA.gov is the U.S. government's official web portal to all federal, state and local government web resources and services.